Location: Vihti�l�
(61.3833°N, 23.0667°E)
Time: 04:05:34
(UTC+00:00)

NOSS 3-1 (A) - Pass Details

Date: 29 November 2020
Orbit: 744 x 1469 km, 63.4° (Epoch: 25 November)

Event Time Altitude Azimuth Distance (km) Brightness Sun altitude
Exits shadow 05:56:00 - 297° (WNW) 2,960 5.3 -7.7°
Reaches altitude 10° 05:56:13 10° 297° (WNW) 2,885 5.3 -7.7°
Maximum altitude 06:03:04 64° 218° (SW) 1,316 4.2 -7.0°
Drops below altitude 10° 06:11:11 10° 139° (SE) 3,392 7.9 -6.2°
Sets 06:14:15 0° 137° (SE) 4,439 9.0 -5.9°
